COSMOS 2251 DEB, 34430

Orbit data source: Space-Track

COSMOS 2251 DEB, 34430 is space debris in LEO originally from a launch on Wed, 16 Jun 1993 UTC launched from the Plesetsk Missile And Space Complex (PKMTR). The debris from Iridium 33, an American commercial communications satellite, has been tracked extensively since its accidental collision with the defunct Russian satellite Cosmos 2251 in 2009. This event, occurring at high speed in low Earth orbit (LEO), generated thousands of pieces of space debris, significantly increasing the risk of further collisions. The Iridium 33 debris cloud has impacted space traffic management and orbital debris mitigation strategies, making it a subject of ongoing study in space situational awareness.

Loading next visibility...
Identifier
34430, 1993-036RX
Orbit
LEO
Country
Flag of CISCIS
Related business
Manufacturer
Unknown
Mission
Spacecraft
Bus & Motor
Unknown
Mass
Unknown
Launch date (UTC)
1993-06-16 (33 years ago)
Launch vehicle
Unknown
Launch site
Plesetsk Missile And Space Complex (PKMTR)
Object type
Payload
Rocket body
Debris
Shape & HBR
Unknown shape, 0.1 m
Radar Cross Section
Medium (>0.1 m² and <1 m²)

Expand to show TLE details & history
Last TLE update: 21 hours ago

TLE from 21 hours ago
0 COSMOS 2251 DEB
1 34430U 93036RX  26264.09622281  .00000469  00000-0  15331-3 0  9990
2 34430  74.0507 142.1025 0060279 143.9739 216.5502 14.40222633920193
Epoch: 2026-09-21T02:18Z
TLE epoch observation values (Epoch: 2026-09-21T02:18:33.650Z)
Latitude
-0.00012°
Longitude
107.4813°
Altitude
795.033 km
Speed
7.438 km/s
True Right ascension
09h 28m 24s
True Declination
0° 00' 00"
Sunlit
Object was in daylight at epoch
Visualization orbit readout
Latitude
Unknown
Longitude
Unknown
Altitude
Unknown
Speed
Unknown
Apparent Right ascension
Unknown
Apparent Declination
Unknown
Sunlit
N/A
Visualization observer readout
Local Sidereal Time
16:26:23
Azimuth
Unknown
Elevation
Unknown
Doppler factor
Unknown
Orbital elements
Apogee altitude
798.381 km
Perigee altitude
712.381 km
Semi-major axis
7,133.518 km
Eccentricity
0.00603
Inclination
74.0507°
RAAN
142.1025°
Arg. of periapsis
143.9739°
True anomaly
216.14132°
Mean anomaly
216.5502°
Eccentric anomaly
216.34551°
Mean motion
3.60236 °/min
Orbital period
99.93 mins
BSTAR
0.00015331

Documentation

Showing up to 5 results
|